Regional Weather Roundup
Issued by NWS State College, PA

Home | Current Version | Previous Version | Text Only | Print | Product List | Glossary On
Versions: 1 2 3 4 5 6 7 8 9 10 11 12 13 14 15 16 17 18 19 20 21 22 23 24 25 26 27 28 29 30 31 32 33 34 35 36 37 38 39 40 41 42 43 44 45 46 47 48 49 50
000
ASUS41 KCTP 201803
RWRCTP

REGIONAL WEATHER ROUNDUP
NATIONAL WEATHER SERVICE STATE COLLEGE PA
200 PM EDT MON APR 20 2015

Note: "fair" indicates few or no clouds below 12,000 feet with no
significant weather and/or obstructions to visibility.

* = STATION THAT DOES NOT REPORT PRECIPITATION /E.G. RAIN...SNOW...ETC/
    THUNDER OR FOG.

PAZ002>004-007>009-013>016-020>023-029>032-201900-
WESTERN PENNSYLVANIA

CITY           SKY/WX    TMP DP  RH WIND       PRES   REMARKS
ERIE           CLOUDY    69  55  60 S23G36    29.37F
MEADVILLE      LGT RAIN  65  54  67 SW13G24   29.42F
FRANKLIN*      PTSUNNY   66  52  59 S21G32    29.45F
NEW CASTLE     LGT RAIN  63  58  83 SW21G30   29.46R
BEAVER COUNTY  PTSUNNY   66  55  68 SW16G28   29.46S
BUTLER*        PTSUNNY   70  54  56 SW13G24   29.47F
PITTSBURGH INT LGT RAIN  71  50  47 S23G32    29.46F
PITTSBURGH     PTSUNNY   69  52  54 SW14G25   29.47F
INDIANA*       CLOUDY    70  57  64 W13       29.53S
LATROBE        PTSUNNY   73  54  49 S21G28    29.51F
WASHINGTON CO* MOSUNNY   73  52  46 SW21G32   29.50F
$$

PAZ004>006-010>012-017>019-024>028-033>037-041-042-045-046-049>053-201900-
CENTRAL PENNSYLVANIA

CITY           SKY/WX    TMP DP  RH WIND       PRES   REMARKS
BRADFORD       CLOUDY    62  52  69 S10G20    29.50F
DUBOIS         CLOUDY    66  53  63 SW12G22   29.50S
CLEARFIELD     CLOUDY    63  51  65 SE10G16   29.54F
JOHNSTOWN      CLOUDY    61  52  72 SE14      29.55S
ALTOONA        CLOUDY    63  53  70 S14       29.58F
STATE COLLEGE  CLOUDY    59  52  77 S8        29.60R
WILLIAMSPORT   CLOUDY    63  53  70 E9        29.59F
SELINSGROVE    PTSUNNY   66  57  72 S8        29.61F
FT INDIANTOWN  CLOUDY    60  56  86 E7        29.63F
CAPITAL CITY   MOSUNNY   66  58  75 E8        29.61F
HARRISBURG     MOSUNNY   67  58  72 E5        29.61F
YORK           MOSUNNY   72  59  63 SW8       29.60F
$$

PAZ038>040-043-044-047-048-054-055-060>062-067>071-201900-
EASTERN PENNSYLVANIA

CITY           SKY/WX    TMP DP  RH WIND       PRES   REMARKS
SCRANTON       CLOUDY    60  51  72 VRB7      29.65S
MOUNT POCONO   LGT RAIN  51  49  92 E12       29.68F
ALLENTOWN      CLOUDY    58  55  90 NE7       29.67S
QUAKERTOWN*    CLOUDY    59  57  94 CALM      29.67S
READING        CLOUDY    61  56  83 E5        29.63F FOG
LANCASTER      PTSUNNY   67  60  78 NE6       29.62F
COATESVILLE    MOCLDY    66  64  94 E5        29.65S
POTTSTOWN      CLOUDY    61  59  93 CALM      29.67S
BLUE BELL      CLOUDY    64  61  88 NW3       29.65S
DOYLESTOWN     CLOUDY    59  58  96 CALM      29.66S
WILLOW GROVE   NOT AVBL
NORTH PHILA    CLOUDY    68  60  75 CALM      29.66F
PHILADELPHIA   PTSUNNY   68  61  78 W8        29.64F
$$


USA.gov is the U.S. government's official web portal to all federal, state and local government web resources and services.